User: anonymous   Login
Location: Unspecified
(0.0000°N, 0.0000°E)
Time: 22:18:53
(UTC+00:00)
Language:

STARLINK-31099 - Orbit

View from above orbital plane
View from above orbital plane
View from above satellite
View from above satellite

Ground track
Ground track

The orbit is defined by the following mean orbital elements,

1 58781U          26145.34063315 +.00000000 +00000-0 +24774-4 0 00003
2 58781  53.1610  17.7904 0001112  91.0176 269.0952 15.30194629    07
Epoch (UTC): 25 May 2026 08:10:30
Eccentricity: 0.0001112
inclination: 53.1610°
perigee height: 474 km
apogee height: 476 km
right ascension of ascending node: 17.7904°
argument of perigee: 91.0176°
revolutions per day: 15.30194629
mean anomaly at epoch: 269.0952°

The dashed part of the orbit path shows where the satellite is in the earth's shadow,  

DLR